{"data":{"norad_id":44751,"intl_designator":"2019-074AQ","name":"STARLINK-1046","alt_names":[],"object_type":"PAYLOAD","status":"ACTIVE","operator":null,"country":"US","launch_date":"2019-11-11","launch_site_code":"AFETR","launch_vehicle":null,"mission":null,"orbit_class":"UNKNOWN","rcs_meters":null,"size_class":null,"mass_kg":null,"dimensions":null,"purposes":["comms"],"wikipedia_slug":null,"has_3d_model":false,"image_url":null,"decayed_at":null,"tle_current":{"epoch":"2026-05-25T03:51:14.065344Z","epoch_age_seconds":64205,"freshness":"FRESH","line1":"1 44751U 19074AQ  26145.16057946  .00062026  00000+0  96559-3 0  9990","line2":"2 44751  53.0476 204.7829 0007241  18.0004 342.1260 15.53306113360260","mean_motion":15.53306113,"eccentricity":0.0007241,"inclination_deg":53.0476,"raan_deg":204.7829,"arg_perigee_deg":18.0004,"mean_anomaly_deg":342.126,"bstar":0.00096559,"rev_number":36026,"period_min":92.705487215191,"perigee_km":402.16784754154,"apogee_km":411.99420028377,"semimajor_km":6785.2180239127,"source":"CELESTRAK","updated_at":"2026-05-25T13:38:16.373645Z"}}}